ALSAT 1N (41789 NORAD) Tracking and Keplerian Element Data

This shows tracking and keplerian element data for the satellite.

Feedback or suggestion? Click here.




ElementValue
Catalog41789
NameALSAT 1N
Epoch Orbit11426
Epoch Day320.21630896
Epoch Year2018
RAAN20.7096
Inclination98.1014
Eccentricity0.0027748
Argument of Perigee331.8204
Mean Anonmoly28.1509
Mean Motion14.64194852
Decay Rate9.4E-07
L11 41789U 16059G 18320.21630896 .00000094 00000-0 26965-4 0 9994
L22 41789 98.1014 20.7096 0027748 331.8204 28.1509 14.64194852114260

Live tracking and technical data element details for ALSAT 1N (NORAD 41789). ALSAT 1N can be tracked NOW for your location showing map with azimuth and elevation plus other details from your city location.

Track the satellite on the map from your city or location and see movement details for azimuth, elevation, latitude, longitude, range, height, and movement on the map or in text.







IsCatalogInMostPopularTable: catalog: 41789, numindb: 134
Update: records affected: 1



GetName: 41789 ALSAT 1N

Hit Count: updated at: Fri, 16 Nov 2018 11:26:50 GMT